FW7772 Weather Reports


Display with metric or nautical units.
time (UTC)temp
F
wind
direction
speed
MPH
gust
MPH
rain 1hr
in
rain 24hr
in
rain mn
in
humidity
%
barometer
mb
20260831143112 64 174 3.0 9.0 0.00 0.09 0.09 78 1003.6
20260831141630 65 173 4.0 10.0 0.00 0.09 0.09 78 1003.6
20260831141103 66 132 3.0 8.0 0.00 0.09 0.09 75 1003.4
20260831135631 67 179 2.0 7.0 0.00 0.09 0.09 71 1003.4
20260831135106 68 153 4.0 10.0 0.00 0.09 0.09 69 1003.5
20260831133630 70 200 4.0 9.0 0.00 0.09 0.09 67 1003.3
20260831132630 68 145 1.0 5.0 0.00 0.09 0.09 78 1003.4
20260831131630 68 275 1.0 3.0 0.00 0.09 0.09 77 1003.2
20260831131549 66 4 2.0 4.0 0.00 0.09 0.09 81 1003.3
20260831125631 65 293 3.0 8.0 0.00 0.09 0.09 85 1003.4
20260831124631 64 334 6.0 10.0 0.00 0.10 0.09 82 1003.3
20260831123630 65 310 8.0 11.0 0.00 0.11 0.09 78 1003.2
20260831123551 66 320 4.0 11.0 0.00 0.11 0.09 75 1003.1
20260831121630 67 351 4.0 10.0 0.00 0.11 0.09 76 1003.1
20260831120631 68 186 4.0 9.0 0.00 0.11 0.09 72 1003.1
20260831120118 69 160 5.0 10.0 0.00 0.11 0.09 70 1003.0
20260831114631 69 205 2.0 8.0 0.00 0.11 0.09 71 1003.1
20260831113630 67 255 2.0 8.0 0.00 0.11 0.09 70 1003.1
20260831112632 66 295 3.0 10.0 0.00 0.11 0.09 73 1003.0
20260831111631 67 204 3.0 11.0 0.00 0.11 0.09 72 1003.0
20260831110631 67 142 3.0 10.0 0.00 0.11 0.09 72 1003.1
20260831105630 68 266 3.0 7.0 0.00 0.11 0.09 72 1003.0
20260831105103 65 237 3.0 8.0 0.00 0.11 0.09 78 1003.1
20260831103632 67 80 0.0 0.0 0.00 0.11 0.09 84 1003.0
20260831102630 64 212 0.0 3.0 0.00 0.11 0.09 86 1003.1
20260831101631 63 247 1.0 6.0 0.00 0.11 0.09 85 1003.1
20260831100631 64 286 1.0 5.0 0.00 0.11 0.09 81 1003.2
20260831095630 62 230 1.0 5.0 0.00 0.11 0.09 86 1003.1
20260831094630 62 190 1.0 5.0 0.00 0.11 0.09 88 1003.1
20260831093630 62 266 3.0 8.0 0.00 0.11 0.09 88 1003.1
20260831092631 62 241 4.0 10.0 0.00 0.11 0.09 89 1003.2
20260831091630 62 217 4.0 10.0 0.00 0.11 0.09 88 1003.1
20260831090631 62 189 4.0 9.0 0.00 0.11 0.09 90 1003.2
20260831085629 60 222 2.0 6.0 0.00 0.11 0.09 93 1003.2
20260831084631 59 123 1.0 7.0 0.00 0.11 0.09 93 1003.1
20260831083631 59 166 1.0 4.0 0.00 0.11 0.09 93 1003.2
20260831082626 60 183 2.0 4.0 0.00 0.11 0.09 93 1003.2
20260831081626 60 200 0.0 4.0 0.00 0.11 0.09 94 1003.1
20260831081111 60 112 0.0 0.0 0.00 0.11 0.09 94 1003.1
20260831075628 60 112 0.0 0.0 0.00 0.11 0.09 94 1003.1
20260831074626 60 112 0.0 0.0 0.00 0.11 0.09 94 1003.1
20260831073625 59 112 0.0 0.0 0.00 0.11 0.09 94 1003.0
20260831073117 59 112 0.0 0.0 0.00 0.11 0.09 94 1002.9
20260831071626 59 112 0.0 0.0 0.00 0.11 0.09 94 1003.0
20260831070626 59 112 0.0 0.0 0.00 0.12 0.09 94 1002.8
20260831065626 59 112 0.0 0.0 0.00 0.12 0.09 95 1002.9
20260831065101 58 112 0.0 0.0 0.00 0.12 0.09 95 1002.8
20260831063623 58 112 0.0 0.0 0.00 0.12 0.09 95 1002.8
20260831063105 58 138 0.0 0.0 0.00 0.13 0.09 95 1002.8
20260831062549 57 209 0.0 0.0 0.00 0.13 0.09 95 1002.7
20260831060619 57 209 0.0 0.0 0.00 0.13 0.09 95 1002.8
20260831060104 57 209 0.0 0.0 0.00 0.13 0.09 95 1002.8
20260831055053 57 209 0.0 0.0 0.00 0.13 0.09 95 1002.6
20260831053616 57 209 0.0 0.0 0.00 0.13 0.09 94 1002.6
20260831052616 57 209 0.0 0.0 0.00 0.13 0.09 94 1002.6
20260831051616 56 209 0.0 0.0 0.00 0.13 0.09 94 1002.7
20260831050616 56 209 0.0 0.0 0.00 0.13 0.09 94 1002.8
20260831045615 56 209 0.0 0.0 0.00 0.13 0.09 94 1002.7
20260831045046 55 209 0.0 0.0 0.00 0.13 0.09 94 1002.7
20260831043609 55 209 0.0 0.0 0.00 0.13 0.09 93 1002.6
20260831043059 55 209 0.0 0.0 0.00 0.13 0.09 93 1002.5
20260831042047 55 209 0.0 0.0 0.00 0.13 0.09 93 1002.5
20260831040609 55 209 0.0 0.0 0.00 0.13 0.09 93 1002.4
20260831035610 55 209 0.0 0.0 0.00 0.13 0.09 93 1002.5
20260831034610 55 209 0.0 0.0 0.00 0.13 0.09 93 1002.5
20260831033609 55 209 0.0 0.0 0.00 0.13 0.09 93 1002.5
20260831033044 55 209 0.0 0.0 0.00 0.13 0.09 93 1002.5
20260831032052 55 209 0.0 0.0 0.00 0.13 0.09 93 1002.5
20260831030608 55 209 0.0 0.0 0.00 0.13 0.09 93 1002.4
20260831025607 55 209 0.0 0.0 0.00 0.13 0.09 93 1002.4
20260831025055 55 209 0.0 0.0 0.00 0.13 0.09 93 1002.4
20260831023609 55 209 0.0 0.0 0.00 0.13 0.09 93 1002.4
20260831023043 55 209 0.0 0.0 0.00 0.13 0.09 93 1002.5
20260831021607 55 209 0.0 0.0 0.00 0.13 0.09 93 1002.4
20260831021053 55 209 0.0 0.0 0.00 0.13 0.09 93 1002.5
20260831015605 56 209 0.0 0.0 0.00 0.13 0.09 93 1002.4
20260831014605 56 209 0.0 0.0 0.00 0.13 0.09 93 1002.6
20260831014046 56 209 0.0 0.0 0.01 0.13 0.09 93 1002.5
20260831013044 56 209 0.0 0.0 0.01 0.13 0.09 93 1002.4
20260831011605 56 209 0.0 2.0 0.02 0.13 0.09 93 1002.4
20260831010603 56 225 1.0 4.0 0.06 0.13 0.09 93 1002.5
20260831005604 56 230 1.0 6.0 0.07 0.13 0.09 93 1002.3
20260831004604 56 243 3.0 7.0 0.09 0.13 0.09 93 1002.3
20260831003603 56 66 3.0 7.0 0.08 0.12 0.09 93 1002.3
20260831002603 56 50 0.0 2.0 0.09 0.13 0.09 93 1002.6
20260831002206 56 266 0.0 0.0 0.08 0.12 0.08 93 1002.9
20260830235603 56 316 0.0 0.0 0.02 0.08 0.02 93 1002.9
20260830234602 56 316 0.0 0.0 0.01 0.06 0.01 93 1002.8
20260830233603 56 316 0.0 0.0 0.01 0.06 0.01 92 1002.8
20260830232603 56 316 0.0 0.0 0.00 0.06 0.00 92 1002.7
20260830231604 56 316 0.0 0.0 0.00 0.06 0.00 92 1002.7
20260830230604 56 316 0.0 0.0 0.00 0.06 0.00 92 1002.7
20260830225603 56 342 0.0 0.0 0.00 0.06 0.00 92 1002.7
20260830224605 56 180 0.0 0.0 0.00 0.06 0.00 92 1002.7
20260830223604 56 180 0.0 0.0 0.00 0.06 0.00 91 1002.7
20260830222603 56 180 0.0 0.0 0.00 0.06 0.00 91 1002.8
20260830221603 56 180 0.0 0.0 0.00 0.06 0.00 91 1002.7
20260830220603 56 180 0.0 0.0 0.00 0.06 0.00 90 1002.5
20260830215603 56 180 0.0 0.0 0.00 0.06 0.06 90 1002.6
20260830214602 57 180 0.0 0.0 0.00 0.06 0.06 90 1002.6
20260830214516 57 180 0.0 0.0 0.00 0.06 0.06 90 1002.6
20260830212602 57 180 0.0 0.0 0.00 0.06 0.06 90 1002.6
20260830211606 57 180 0.0 0.0 0.00 0.06 0.06 90 1002.5
20260830210603 58 180 0.0 0.0 0.00 0.06 0.06 90 1002.5
20260830205604 58 180 0.0 0.0 0.00 0.06 0.06 90 1002.6
20260830204603 58 180 0.0 0.0 0.00 0.06 0.06 90 1002.6
20260830203603 58 180 0.0 0.0 0.00 0.06 0.06 89 1002.5
20260830202603 58 180 0.0 0.0 0.00 0.06 0.06 89 1002.5
20260830201602 58 180 0.0 0.0 0.00 0.06 0.06 89 1002.5
20260830200603 59 180 0.0 0.0 0.00 0.06 0.06 89 1002.5
20260830195603 59 180 0.0 0.0 0.00 0.06 0.06 89 1002.6
20260830194606 59 180 0.0 0.0 0.00 0.06 0.06 89 1002.6
20260830193603 59 180 0.0 0.0 0.00 0.06 0.06 88 1002.6
20260830192602 60 180 0.0 0.0 0.00 0.06 0.06 88 1002.6
20260830191603 60 180 0.0 0.0 0.00 0.06 0.06 88 1002.6
20260830190602 60 180 0.0 0.0 0.00 0.06 0.06 87 1002.5
20260830185603 60 180 0.0 0.0 0.00 0.06 0.06 87 1002.6
20260830185046 60 180 0.0 1.0 0.00 0.06 0.06 86 1002.5
20260830183602 61 180 1.0 3.0 0.00 0.06 0.06 85 1002.5
20260830182602 61 156 0.0 2.0 0.00 0.06 0.06 85 1002.5
20260830181604 61 156 1.0 4.0 0.00 0.06 0.06 85 1002.4
20260830181525 61 155 1.0 3.0 0.00 0.06 0.06 85 1002.3
20260830175603 62 199 1.0 4.0 0.00 0.06 0.06 85 1002.3
20260830174603 62 132 0.0 0.0 0.00 0.06 0.06 85 1002.2
20260830173602 62 132 0.0 0.0 0.00 0.06 0.06 86 1002.2
20260830172603 62 132 0.0 0.0 0.00 0.06 0.06 86 1002.2
20260830172510 62 132 0.0 0.0 0.00 0.06 0.06 87 1002.1
20260830170602 62 132 0.0 0.0 0.00 0.06 0.06 87 1002.1
20260830165603 62 132 0.0 0.0 0.00 0.06 0.06 87 1002.0
20260830164603 62 132 0.0 0.0 0.00 0.06 0.06 86 1002.0
20260830163604 62 132 0.0 0.0 0.00 0.06 0.06 85 1002.0
20260830162602 62 132 1.0 3.0 0.00 0.06 0.06 83 1002.0
20260830161613 62 141 1.0 3.0 0.00 0.06 0.06 83 1001.9
20260830161025 62 193 2.0 4.0 0.00 0.06 0.06 83 1002.1
20260830155542 62 181 2.0 5.0 0.00 0.06 0.06 82 1002.1
20260830154539 62 185 2.0 6.0 0.00 0.06 0.06 82 1002.0
20260830153544 62 100 3.0 10.0 0.00 0.06 0.06 81 1001.9
20260830152538 63 138 4.0 10.0 0.00 0.06 0.06 79 1002.0
20260830151547 64 79 4.0 10.0 0.00 0.06 0.06 76 1001.9
20260830150536 65 164 3.0 10.0 0.00 0.06 0.06 76 1001.8
20260830145539 65 164 4.0 13.0 0.00 0.06 0.06 74 1001.8
20260830144535 66 179 4.0 10.0 0.00 0.06 0.06 73 1001.8
20260830143535 66 234 6.0 14.0 0.00 0.06 0.06 72 1001.9